Marshfield, MA

6:19 PM EDT on August 17, 2017 (GMT -0400)
Marshfield

Weather History for KGHG - December, 2011

Change the Weather History Date:

Thursday, December 8, 2011

  Actual Average (KPYM) Record (KPYM)
Temperature  
Mean Temperature 40 °F -  
Max Temperature 48 °F 42 °F 65 °F (1951)
Min Temperature 33 °F 24 °F 6 °F (2008)
Degree Days  
Heating Degree Days 24    
Moisture  
Dew Point 32 °F    
Average Humidity 73    
Maximum Humidity 100    
Minimum Humidity 46    
Precipitation  
Precipitation 0.06 in - - ()
Sea Level Pressure  
Sea Level Pressure 29.83 in    
Wind  
Wind Speed 12 mph (WNW)    
Max Wind Speed 22 mph    
Max Gust Speed 43 mph    
Visibility 8 miles    
Events Rain    
Averages and records for this station are not official NWS values.
T = Trace of Precipitation, MM = Missing Value Source: NWS Daily Summary

Daily Weather History Graph

Daily Weather History Graph

Search for Another Location

Airport or City:

Trip Planner

Search our weather history database for the weather conditions in past years. The results will help you decide how hot, cold, wet, or windy it might be!

Date:

Astronomy

Dec. 08, 2011 Rise Set
Actual Time 6:58 AM EST 4:10 PM EST
Civil Twilight 6:26 AM EST 4:42 PM EST
Nautical Twilight 5:51 AM EST 5:17 PM EST
Astronomical Twilight 5:17 AM EST 5:51 PM EST
Moon 2:48 PM EST (12/8) 5:06 AM EST (12/8)
Length of Visible Light 10h 15m
Length of Day
9h 12m
Waxing Gibbous, 97% of the Moon is Illuminated
Dec 8
Waxing Gibbous
Dec 10
Full
Dec 17
Last Quarter
Dec 24
New
Jan 1
First Quarter

Hourly Weather History & Observations

Time (EST) Temp. Windchill Dew Point Humidity Pressure Visibility Wind Dir Wind Speed Gust Speed Precip Events Conditions
12:15 AM 48.2 °F - 48.2 °F 100% 29.41 in 1.8 mi North 9.2 mph - N/A Rain Rain
12:35 AM 48.2 °F - 48.2 °F 100% 29.41 in 1.8 mi NNE 11.5 mph - 0.01 in Rain Rain
12:55 AM 48.2 °F - 48.2 °F 100% 29.38 in 3.0 mi North 12.7 mph - 0.01 in Rain Light Rain
1:15 AM 48.2 °F - 46.4 °F 93% 29.36 in 1.2 mi North 15.0 mph 25.3 mph N/A Rain Light Rain
1:35 AM 46.4 °F 39.8 °F 44.6 °F 93% 29.36 in 1.8 mi North 16.1 mph 27.6 mph N/A Rain Rain
1:55 AM 44.6 °F 37.8 °F 44.6 °F 100% 29.33 in 5.0 mi North 15.0 mph 21.9 mph 0.01 in Rain Light Rain
2:15 AM 44.6 °F 37.8 °F 44.6 °F 100% 29.27 in 8.0 mi North 15.0 mph 26.5 mph N/A Rain Rain
2:35 AM 44.6 °F 37.4 °F 42.8 °F 93% 29.31 in 1.0 mi NNW 16.1 mph 26.5 mph N/A Rain Heavy Rain
2:55 AM 42.8 °F 36.6 °F 42.8 °F 100% 29.27 in 5.0 mi NNW 11.5 mph 21.9 mph 0.01 in Rain Light Rain
3:15 AM 42.8 °F 37.5 °F 41.0 °F 93% 29.29 in 4.0 mi NW 9.2 mph 24.2 mph N/A Rain Rain
3:35 AM 42.8 °F 36.2 °F 41.0 °F 93% 29.29 in 1.5 mi NNW 12.7 mph 20.7 mph N/A Rain Heavy Rain
3:55 AM 42.8 °F 35.4 °F 41.0 °F 93% 29.30 in 7.0 mi NW 15.0 mph 23.0 mph N/A   Light Drizzle
4:15 AM 42.8 °F 34.8 °F 41.0 °F 93% 29.35 in 9.0 mi WNW 17.3 mph 28.8 mph N/A Rain Light Rain
4:35 AM 42.8 °F 35.4 °F 39.2 °F 87% 29.39 in 2.0 mi NW 15.0 mph 26.5 mph N/A Rain Rain
4:55 AM 39.2 °F 29.0 °F 39.2 °F 100% 29.41 in 1.8 mi WNW 21.9 mph 42.6 mph N/A Rain Heavy Rain
5:15 AM 39.2 °F 31.6 °F 37.4 °F 93% 29.42 in 8.0 mi NW 12.7 mph 27.6 mph N/A   Light Drizzle
5:35 AM 39.2 °F 31.6 °F 37.4 °F 93% 29.45 in 10.0 mi WNW 12.7 mph 34.5 mph 0.01 in   Overcast
5:55 AM 39.2 °F 31.6 °F 35.6 °F 87% 29.49 in 10.0 mi WNW 12.7 mph 35.7 mph 0.02 in   Overcast
6:35 AM 39.2 °F 30.5 °F 35.6 °F 87% 29.59 in 10.0 mi West 16.1 mph 27.6 mph 0.01 in   Overcast
6:55 AM 39.2 °F 32.5 °F 33.8 °F 81% 29.61 in 10.0 mi West 10.4 mph 16.1 mph 0.01 in   Mostly Cloudy
7:15 AM 37.4 °F 29.3 °F 32.0 °F 81% 29.65 in 10.0 mi West 12.7 mph 21.9 mph N/A   Partly Cloudy
7:35 AM 37.4 °F 28.2 °F 32.0 °F 81% 29.69 in 10.0 mi West 16.1 mph 32.2 mph N/A   Scattered Clouds
7:55 AM 37.4 °F 27.8 °F 32.0 °F 81% 29.72 in 10.0 mi West 17.3 mph 27.6 mph N/A   Mostly Cloudy
8:15 AM 37.4 °F 28.2 °F 30.2 °F 75% 29.76 in 10.0 mi WNW 16.1 mph 29.9 mph N/A   Partly Cloudy
8:35 AM 37.4 °F 28.9 °F 30.2 °F 75% 29.80 in 10.0 mi West 13.8 mph 28.8 mph N/A   Partly Cloudy
8:55 AM 37.4 °F 27.5 °F 28.4 °F 70% 29.82 in 10.0 mi WNW 18.4 mph 31.1 mph N/A   Partly Cloudy
9:15 AM 39.2 °F 32.0 °F 28.4 °F 65% 29.84 in 10.0 mi West 11.5 mph 29.9 mph N/A   Clear
9:35 AM 39.2 °F 30.2 °F 26.6 °F 61% 29.86 in 10.0 mi West 17.3 mph 28.8 mph N/A   Clear
9:55 AM 39.2 °F 31.6 °F 26.6 °F 61% 29.88 in 10.0 mi West 12.7 mph 21.9 mph N/A   Clear
10:15 AM 41.0 °F 33.1 °F 26.6 °F 57% 29.91 in 10.0 mi WNW 15.0 mph 27.6 mph N/A   Clear
10:35 AM 41.0 °F 33.9 °F 26.6 °F 57% 29.92 in 10.0 mi West 12.7 mph 23.0 mph N/A   Clear
10:55 AM 42.8 °F 35.1 °F 26.6 °F 53% 29.95 in 10.0 mi WNW 16.1 mph 26.5 mph N/A   Clear
11:15 AM 42.8 °F 36.2 °F 26.6 °F 53% 29.94 in 10.0 mi WNW 12.7 mph 26.5 mph N/A   Clear
11:35 AM 42.8 °F 37.5 °F 26.6 °F 53% 29.95 in 10.0 mi West 9.2 mph 21.9 mph N/A   Clear
11:55 AM 44.6 °F 41.4 °F 26.6 °F 49% 29.95 in 10.0 mi West 5.8 mph 27.6 mph N/A   Clear
12:15 PM 44.6 °F 39.2 °F 24.8 °F 46% 29.96 in 10.0 mi West 10.4 mph 23.0 mph N/A   Clear
12:35 PM 44.6 °F 40.2 °F 26.6 °F 49% 29.97 in 10.0 mi West 8.1 mph 20.7 mph N/A   Clear
12:55 PM 44.6 °F 37.2 °F 26.6 °F 49% 29.97 in 10.0 mi WNW 17.3 mph 26.5 mph N/A   Clear
1:15 PM 44.6 °F 38.4 °F 26.6 °F 49% 29.97 in 10.0 mi WNW 12.7 mph 18.4 mph N/A   Clear
1:35 PM 44.6 °F 38.4 °F 26.6 °F 49% 29.98 in 10.0 mi WNW 12.7 mph 21.9 mph N/A   Clear
1:55 PM 44.6 °F 38.4 °F 26.6 °F 49% 29.99 in 10.0 mi West 12.7 mph 24.2 mph N/A   Partly Cloudy
2:15 PM 44.6 °F 37.8 °F 26.6 °F 49% 29.98 in 10.0 mi WNW 15.0 mph 20.7 mph N/A   Clear
2:35 PM 44.6 °F 38.8 °F 26.6 °F 49% 30.01 in 10.0 mi West 11.5 mph 21.9 mph N/A   Clear
2:55 PM 44.6 °F 39.2 °F 26.6 °F 49% 30.04 in 10.0 mi West 10.4 mph 17.3 mph N/A   Clear
3:15 PM 44.6 °F 39.2 °F 26.6 °F 49% 30.07 in 10.0 mi West 10.4 mph 16.1 mph N/A   Clear
4:15 PM 42.8 °F 38.6 °F 28.4 °F 57% 30.11 in 10.0 mi West 6.9 mph - N/A   Clear
4:35 PM 41.0 °F 35.8 °F 26.6 °F 57% 30.12 in 10.0 mi West 8.1 mph 17.3 mph N/A   Clear
4:55 PM 41.0 °F 38.0 °F 26.6 °F 57% 30.14 in 10.0 mi West 4.6 mph - N/A   Clear
5:15 PM 39.2 °F 37.0 °F 28.4 °F 65% 30.16 in 10.0 mi WSW 3.5 mph - N/A   Clear
5:35 PM 35.6 °F - 28.4 °F 75% 30.17 in 10.0 mi Calm Calm - N/A   Clear
5:55 PM 37.4 °F 32.1 °F 28.4 °F 70% 30.19 in 10.0 mi WSW 6.9 mph - N/A   Clear
6:15 PM 39.2 °F 33.6 °F 28.4 °F 65% 30.20 in 10.0 mi West 8.1 mph - N/A   Clear
6:35 PM 37.4 °F 34.9 °F 28.4 °F 70% 30.22 in 10.0 mi WSW 3.5 mph - N/A   Clear
6:55 PM 35.6 °F 31.7 °F 28.4 °F 75% 30.24 in 10.0 mi SW 4.6 mph - N/A   Clear
7:15 PM 37.4 °F 32.8 °F 28.4 °F 70% 30.25 in 10.0 mi WSW 5.8 mph - N/A   Clear
7:35 PM 37.4 °F 33.8 °F 28.4 °F 70% 30.27 in 10.0 mi WSW 4.6 mph - N/A   Clear
7:55 PM 37.4 °F 32.8 °F 28.4 °F 70% 30.28 in 10.0 mi SW 5.8 mph - N/A   Clear
8:15 PM 35.6 °F 31.7 °F 28.4 °F 75% 30.29 in 10.0 mi SW 4.6 mph - N/A   Clear
8:35 PM 35.6 °F 31.7 °F 28.4 °F 75% 30.29 in 10.0 mi SW 4.6 mph - N/A   Clear
8:55 PM 35.6 °F 32.8 °F 28.4 °F 75% 30.29 in 10.0 mi SW 3.5 mph - N/A   Clear
9:15 PM 33.8 °F 30.8 °F 28.4 °F 81% 30.29 in 10.0 mi SW 3.5 mph - N/A   Clear
9:35 PM 33.8 °F 30.8 °F 28.4 °F 81% 30.29 in 10.0 mi SW 3.5 mph - N/A   Clear
9:55 PM 33.8 °F 29.6 °F 28.4 °F 81% 30.29 in 10.0 mi WSW 4.6 mph - N/A   Clear
10:15 PM 33.8 °F 29.6 °F 28.4 °F 81% 30.29 in 10.0 mi SW 4.6 mph - N/A   Clear
10:35 PM 33.8 °F 30.8 °F 28.4 °F 81% 30.30 in 10.0 mi SW 3.5 mph - N/A   Clear
10:55 PM 33.8 °F 30.8 °F 28.4 °F 81% 30.30 in 10.0 mi WSW 3.5 mph - N/A   Clear
11:15 PM 32.0 °F 28.7 °F 28.4 °F 87% 30.29 in 10.0 mi WSW 3.5 mph - N/A   Clear
11:35 PM 32.0 °F 27.5 °F 28.4 °F 87% 30.30 in 10.0 mi WSW 4.6 mph - N/A   Clear
11:55 PM 32.0 °F 28.7 °F 28.4 °F 87% 30.29 in 10.0 mi WSW 3.5 mph - N/A   Clear